PROGRESS-MS 09 (43537 NORAD) Tracking and Keplerian Element Data

This shows tracking and keplerian element data for the satellite.

Feedback or suggestion? Click here.




ElementValue
Catalog43537
NamePROGRESS-MS 09
Epoch Orbit12371
Epoch Day201.59946376
Epoch Year2018
RAAN212.1722
Inclination51.6405
Eccentricity0.0003978
Argument of Perigee338.6853
Mean Anonmoly158.726
Mean Motion15.53995663
Decay Rate1.33E-05
L11 43537U 18058A 18201.59946376 .00001330 00000-0 27466-4 0 9991
L22 43537 51.6405 212.1722 0003978 338.6853 158.7260 15.53995663123710

Live tracking and technical data element details for PROGRESS-MS 09 (NORAD 43537). PROGRESS-MS 09 can be tracked NOW for your location showing map with azimuth and elevation plus other details from your city location.

Track the satellite on the map from your city or location and see movement details for azimuth, elevation, latitude, longitude, range, height, and movement on the map or in text.







IsCatalogInMostPopularTable: catalog: 43537, numindb: 5
Update: records affected: 1



GetName: 43537 PROGRESS-MS 09

Hit Count: updated at: Mon, 23 Jul 2018 07:54:10 GMT